{"data":{"norad_id":50190,"intl_designator":"2021-125AL","name":"STARLINK-3268","alt_names":[],"object_type":"PAYLOAD","status":"ACTIVE","operator":null,"country":"US","launch_date":"2021-12-18","launch_site_code":"AFWTR","launch_vehicle":null,"mission":null,"orbit_class":"UNKNOWN","rcs_meters":null,"size_class":null,"mass_kg":null,"dimensions":null,"purposes":["comms"],"wikipedia_slug":null,"has_3d_model":false,"image_url":null,"decayed_at":null,"tle_current":{"epoch":"2026-05-25T00:17:34.986336Z","epoch_age_seconds":73756,"freshness":"FRESH","line1":"1 50190U 21125AL  26145.01221049  .00000455  00000+0  46699-4 0  9994","line2":"2 50190  53.2148 256.4946 0001194  85.5648 274.5480 15.08833594248254","mean_motion":15.08833594,"eccentricity":0.0001194,"inclination_deg":53.2148,"raan_deg":256.4946,"arg_perigee_deg":85.5648,"mean_anomaly_deg":274.548,"bstar":4.6699e-5,"rev_number":24825,"period_min":95.437959873526,"perigee_km":538.93697235625,"apogee_km":540.58896686899,"semimajor_km":6917.8999696126,"source":"CELESTRAK","updated_at":"2026-05-25T13:38:16.870795Z"}}}